Wind_Speed
43 43 43 44 43 42 43 44 45 42 41 38 38 40 40 40 41 41 41 41 42 42 42 43 43 44 44 45 45 45 46 47 48 49 50 50 50 50 49 49 49 49 49 50
44 43 44 45 43 41 42 43 44 44 42 39 40 41 42 42 42 42 42 42 43 44 44 44 43 43 44 45 46 47 47 48 49 49 49 48 49 49 50 50 50 49 49 50
43 42 45 45 40 41 42 42 42 43 41 41 41 42 43 43 43 43 43 43 43 44 44 44 44 44 45 45 47 48 49 49 48 47 47 47 48 49 50 49 49 50 50 50
43 44 46 42 40 40 41 40 40 41 41 42 42 43 43 44 45 45 45 44 44 44 44 45 45 45 45 46 47 47 48 48 48 46 46 46 47 48 49 49 49 49 49 49
43 45 46 41 39 40 41 41 39 41 41 42 42 43 43 45 46 46 46 45 44 44 44 44 44 44 45 45 46 47 47 47 46 46 46 47 47 47 48 48 47 47 48 47
44 45 46 41 39 40 42 42 39 41 42 42 43 43 43 44 45 46 46 46 45 44 44 44 44 44 44 44 45 45 44 43 44 44 45 46 46 46 46 46 46 47 46 46
43 45 44 40 39 40 41 40 41 42 42 42 43 43 43 44 44 45 44 45 45 45 45 44 44 44 44 44 44 43 42 42 43 44 45 45 45 45 45 44 44 44 43 44
42 44 42 39 40 40 41 41 41 42 42 43 43 43 43 44 44 44 44 45 46 46 45 44 44 44 44 44 43 43 42 42 42 43 43 44 43 43 44 44 43 42 42 42
43 42 41 40 41 41 42 42 42 43 43 43 44 44 44 44 44 44 45 45 46 46 45 44 44 44 44 43 42 42 41 41 41 41 41 41 41 41 40 40 40 39 39 39
43 41 40 41 41 42 43 44 44 44 44 44 44 44 44 44 43 43 44 44 44 44 44 44 44 44 43 43 43 41 40 40 39 39 38 38 37 37 36 36 36 36 35 35
42 40 41 41 42 43 44 45 44 44 44 44 44 44 44 43 43 43 43 43 43 42 42 42 42 42 42 41 41 40 40 39 38 38 36 35 34 33 33 33 33 33 33 33
41 40 42 42 42 44 44 44 44 43 44 43 44 43 43 42 42 42 42 42 41 41 41 41 40 40 40 40 39 38 38 37 36 35 34 33 32 31 31 32 32 31 31 30
41 41 42 42 42 42 43 43 43 43 43 43 42 42 41 41 41 41 41 40 40 40 39 39 39 39 38 38 37 37 36 35 34 33 32 32 31 30 30 29 29 30 29 29
41 41 41 41 42 42 42 42 41 41 42 42 42 41 41 40 40 39 39 39 39 39 38 38 37 37 36 36 35 34 34 33 32 32 31 31 30 29 29 29 28 28 27 27
40 40 40 41 41 41 40 40 40 39 40 40 40 40 39 39 38 38 38 39 38 38 38 37 36 35 34 34 33 32 32 31 31 30 30 30 30 29 28 28 27 27 26 26
38 38 39 39 38 38 39 39 39 38 39 39 39 39 38 38 38 38 38 38 38 37 36 35 34 33 32 32 31 31 30 30 30 29 29 28 28 27 26 26 26 26 25 24
36 36 36 36 36 37 37 38 38 37 38 38 38 37 37 37 37 37 36 36 36 35 33 32 32 31 31 31 30 30 29 29 29 28 27 26 25 25 25 25 25 25 25 25
34 34 34 35 36 36 36 37 37 37 36 36 36 36 36 35 35 34 33 32 31 31 30 30 29 29 29 28 28 28 28 28 28 27 26 26 25 24 23 23 23 23 23 23
32 33 34 34 35 35 36 35 35 34 34 34 34 33 33 32 32 31 30 29 29 28 28 28 27 27 27 27 27 26 26 25 25 25 24 24 23 23 22 21 21 21 20 21
31 32 32 33 33 33 33 33 33 33 32 32 31 31 30 30 30 29 29 28 27 27 27 27 26 26 25 25 24 24 23 23 23 23 23 22 22 21 21 21 20 20 19 19
30 30 31 31 31 31 32 32 31 30 30 30 29 29 29 28 28 27 27 26 26 26 26 26 25 24 24 23 23 22 22 22 22 22 21 20 20 20 20 20 20 19 19 19
30 30 30 29 29 29 30 29 28 28 28 27 27 28 27 27 26 26 25 24 24 25 25 24 23 23 23 22 21 20 21 21 21 20 20 20 20 19 19 19 19 19 19 19
30 29 28 28 28 28 27 27 26 26 26 26 26 26 26 25 25 24 23 23 24 23 22 22 22 21 21 20 20 20 20 20 20 20 19 19 19 19 18 18 18 18 19 18
27 27 27 26 26 25 25 25 25 25 25 24 24 24 24 24 23 23 23 22 22 21 21 20 20 19 19 19 19 19 19 19 19 18 18 17 18 18 18 18 18 18 18 18
26 25 24 24 23 23 23 24 23 23 23 23 23 22 22 22 22 22 22 21 20 20 19 19 18 18 17 18 18 18 18 17 17 17 17 16 16 16 16 17 17 17 17 17
24 24 23 23 23 23 23 23 22 22 22 22 22 22 21 21 21 20 20 20 19 19 18 17 17 16 16 16 17 17 17 16 16 15 15 15 15 16 17 17 17 17 17 16
23 23 23 23 23 23 23 22 22 22 22 21 21 21 21 21 20 20 20 19 18 18 18 17 17 16 16 16 16 16 15 15 14 14 14 14 15 15 15 16 15 15 14 14
Wind_Direction
268 269 270 271 272 272 273 276 279 280 280 282 281 280 281 281 282 283 283 283 282 282 282 282 281 280 279 279 278 278 278 276 276 275 274 272 272 271 270 268 266 265 266 267
269 270 270 270 271 272 273 276 278 279 280 281 280 281 281 281 282 283 284 283 283 284 284 284 284 284 281 280 279 279 279 278 278 277 275 273 272 271 271 270 267 266 268 269
268 269 269 270 273 273 274 275 276 277 280 280 280 280 281 281 281 282 283 283 283 284 285 285 285 284 283 282 281 281 280 280 279 277 275 273 273 273 273 270 268 268 269 270
269 269 270 275 275 275 275 274 275 277 279 280 281 281 282 282 283 283 283 283 284 285 285 286 286 284 283 283 283 282 281 280 279 277 275 274 275 275 273 271 271 271 271 270
269 271 273 275 277 277 276 274 276 278 280 281 282 282 283 283 284 284 284 284 284 285 285 286 287 286 284 283 283 282 281 280 279 277 276 276 277 276 274 273 273 272 269 268
271 273 276 279 278 277 276 276 278 278 280 282 283 283 284 284 285 285 285 285 285 285 285 286 286 285 285 284 284 283 281 280 279 279 279 278 278 277 275 275 274 272 269 268
271 273 276 280 280 279 278 280 279 281 282 283 284 285 286 286 285 285 285 285 286 286 286 286 285 284 284 284 284 284 283 282 281 281 281 281 279 278 276 275 274 272 270 268
271 272 277 279 278 278 278 279 281 283 283 284 285 287 287 287 286 286 286 286 286 287 287 286 285 284 284 284 283 283 284 283 283 283 282 281 280 278 277 275 274 272 270 268
270 272 276 276 277 278 278 279 280 282 284 284 286 287 288 287 287 287 287 287 287 287 287 287 285 283 283 283 283 283 284 284 284 284 283 282 281 280 279 276 274 272 270 269
270 272 274 274 276 277 277 278 280 281 282 284 286 287 287 287 286 286 287 287 287 287 287 286 285 284 284 283 283 283 283 283 283 283 283 282 281 281 279 278 276 275 274 273
270 273 272 273 274 276 276 278 279 280 282 284 285 286 287 287 287 287 287 287 287 287 287 286 285 284 284 284 283 282 282 282 282 282 282 281 281 281 280 278 278 277 276 275
271 272 272 273 273 275 277 279 279 280 281 283 285 287 287 286 287 287 287 287 287 287 287 287 286 285 285 285 284 283 282 282 282 283 283 281 279 278 277 277 277 277 277 275
271 272 273 274 275 276 278 279 279 280 281 283 284 285 286 286 287 287 287 286 287 287 288 287 286 285 285 284 284 284 283 281 280 281 281 279 278 277 277 276 277 278 277 275
269 271 272 273 274 275 276 278 279 280 282 283 284 284 285 286 287 286 286 286 287 287 288 287 286 285 285 284 284 283 282 281 279 278 278 277 277 278 278 276 276 275 275 275
268 271 273 274 275 275 277 279 281 282 283 283 284 284 285 285 285 286 286 286 286 287 288 287 286 285 284 284 283 283 282 280 278 278 277 277 277 278 278 277 277 275 274 273
269 271 273 274 276 277 278 279 281 283 283 283 283 283 284 285 285 286 287 287 287 288 288 288 286 284 283 283 283 283 282 281 279 277 277 277 277 277 276 276 276 275 274 273
271 272 273 275 276 278 279 281 282 283 283 282 281 281 283 285 286 287 287 287 288 288 288 287 286 285 284 284 284 283 282 280 279 278 277 278 277 276 275 275 276 275 273 273
271 272 274 275 278 279 281 282 283 282 282 281 280 281 283 285 286 286 286 287 288 288 288 287 286 287 286 286 284 283 282 280 278 277 276 276 276 276 275 275 276 274 272 270
273 274 276 278 279 279 280 281 281 282 281 281 281 282 283 284 284 285 285 286 288 288 287 288 288 288 287 286 285 284 283 281 278 276 275 275 274 273 273 275 276 274 271 270
274 276 278 279 280 279 280 280 281 281 280 280 281 282 282 283 283 284 285 287 287 287 288 288 288 289 288 287 286 284 282 281 278 275 273 273 273 273 273 274 275 275 273 272
277 278 280 280 280 280 280 281 281 281 280 280 280 281 281 282 284 285 286 287 287 287 288 289 288 288 288 287 286 284 281 280 279 277 274 273 272 272 273 274 275 275 273 272
279 280 281 281 281 281 282 282 281 281 281 281 281 280 280 282 283 285 286 286 286 287 288 288 288 288 288 288 286 283 280 279 279 277 275 273 272 273 273 274 274 275 275 273
280 281 281 281 280 281 282 282 282 282 282 281 281 281 281 282 283 285 287 287 287 288 288 288 288 288 288 287 287 285 282 281 279 278 276 273 271 270 271 273 274 274 275 275
280 281 282 283 283 283 283 283 283 283 283 283 282 282 282 283 284 284 286 287 288 288 290 290 289 288 287 287 287 287 285 283 281 279 276 273 270 268 269 272 274 273 273 273
279 281 282 283 283 283 283 283 283 283 283 283 283 282 282 283 284 285 286 287 287 287 288 289 289 289 288 288 288 288 286 283 281 278 275 273 270 269 269 272 274 274 273 271
280 280 281 282 282 282 283 284 284 283 283 283 281 281 283 284 285 286 287 287 285 285 286 288 289 288 288 289 288 289 288 285 281 277 275 273 272 272 270 270 271 273 272 269
280 280 281 282 282 282 283 284 284 284 283 282 281 281 282 283 284 285 286 287 285 285 285 286 286 285 286 288 288 287 287 285 281 277 275 273 274 276 275 275 275 274 272 269
Height
5598 5597 5596 5596 5596 5595 5593 5591 5589 5590 5590 5591 5588 5586 5584 5582 5580 5578 5577 5575 5573 5571 5569 5567 5565 5563 5561 5559 5557 5555 5554 5552 5550 5549 5547 5546 5545 5544 5543 5543 5542 5542 5542 5542
5587 5587 5585 5585 5586 5585 5583 5582 5579 5578 5580 5580 5577 5575 5573 5571 5569 5567 5566 5564 5562 5560 5558 5555 5553 5551 5549 5547 5545 5543 5541 5539 5537 5535 5533 5532 5531 5530 5530 5530 5529 5529 5528 5528
5575 5575 5573 5575 5578 5575 5573 5572 5570 5568 5570 5568 5566 5565 5563 5561 5559 5557 5555 5553 5550 5548 5546 5544 5542 5539 5537 5535 5532 5530 5528 5525 5523 5521 5520 5519 5518 5517 5516 5516 5516 5515 5515 5515
5563 5564 5562 5570 5567 5565 5562 5562 5560 5559 5558 5557 5555 5554 5552 5550 5548 5546 5543 5541 5539 5537 5535 5532 5530 5527 5525 5522 5519 5517 5514 5512 5510 5508 5507 5506 5505 5504 5503 5502 5502 5502 5502 5501
5552 5551 5551 5557 5556 5553 5550 5551 5551 5548 5547 5545 5544 5543 5542 5538 5536 5534 5532 5530 5528 5525 5523 5520 5518 5515 5512 5510 5507 5504 5501 5499 5497 5496 5495 5493 5492 5491 5490 5489 5489 5488 5488 5488
5541 5539 5540 5547 5545 5541 5539 5540 5541 5538 5536 5535 5533 5532 5532 5528 5525 5523 5520 5518 5516 5513 5511 5508 5505 5503 5500 5497 5494 5491 5489 5487 5485 5484 5482 5481 5479 5478 5477 5476 5476 5475 5475 5475
5531 5528 5530 5535 5533 5530 5530 5530 5528 5526 5525 5523 5521 5520 5519 5516 5514 5511 5509 5506 5504 5501 5499 5496 5493 5490 5488 5485 5482 5479 5477 5475 5473 5471 5470 5468 5467 5465 5464 5463 5463 5463 5463 5463
5521 5519 5524 5523 5520 5519 5518 5517 5516 5514 5513 5511 5510 5508 5506 5504 5502 5499 5497 5495 5492 5489 5487 5483 5480 5478 5475 5473 5470 5468 5466 5463 5461 5459 5458 5456 5454 5453 5451 5450 5450 5450 5450 5451
5511 5513 5513 5511 5509 5507 5506 5505 5504 5503 5502 5500 5498 5496 5494 5492 5490 5487 5485 5483 5480 5477 5475 5472 5468 5466 5463 5461 5458 5456 5454 5452 5450 5448 5446 5444 5442 5441 5440 5439 5438 5438 5438 5439
5499 5501 5501 5499 5497 5496 5494 5493 5492 5491 5490 5488 5486 5485 5483 5481 5478 5476 5473 5471 5468 5465 5462 5460 5456 5453 5451 5449 5447 5445 5443 5441 5439 5438 5436 5434 5432 5430 5429 5428 5428 5428 5428 5428
5487 5490 5488 5488 5486 5484 5482 5481 5480 5479 5478 5476 5475 5473 5471 5469 5467 5464 5461 5459 5456 5453 5450 5448 5445 5442 5439 5437 5435 5434 5432 5430 5429 5427 5425 5424 5423 5421 5420 5420 5418 5418 5418 5418
5477 5478 5475 5476 5475 5473 5471 5470 5469 5467 5466 5465 5463 5461 5459 5457 5455 5452 5450 5447 5444 5441 5438 5436 5433 5431 5428 5426 5424 5422 5421 5419 5418 5417 5416 5415 5414 5413 5412 5411 5410 5409 5409 5409
5464 5464 5463 5463 5462 5461 5459 5458 5457 5456 5455 5454 5452 5449 5447 5445 5443 5441 5438 5435 5432 5430 5427 5425 5422 5420 5417 5415 5413 5412 5410 5409 5408 5407 5406 5406 5405 5404 5404 5404 5402 5402 5401 5401
5452 5451 5451 5451 5450 5449 5448 5447 5446 5444 5443 5442 5440 5438 5436 5434 5432 5429 5427 5424 5422 5419 5416 5414 5411 5409 5407 5405 5403 5402 5400 5399 5398 5398 5397 5397 5396 5395 5395 5395 5395 5394 5393 5393
5441 5440 5439 5439 5439 5438 5437 5436 5435 5434 5432 5430 5428 5427 5425 5423 5421 5418 5416 5413 5411 5408 5406 5403 5401 5398 5396 5395 5393 5392 5391 5390 5389 5389 5388 5388 5387 5387 5386 5386 5386 5386 5386 5386
5430 5429 5429 5428 5428 5427 5426 5425 5424 5423 5421 5419 5417 5416 5414 5412 5410 5408 5405 5403 5400 5398 5395 5393 5390 5388 5387 5385 5384 5383 5382 5380 5380 5380 5380 5379 5379 5378 5378 5378 5378 5377 5378 5378
5419 5419 5419 5418 5417 5416 5415 5414 5413 5411 5410 5408 5406 5405 5403 5401 5399 5397 5395 5392 5390 5388 5385 5383 5381 5379 5377 5376 5375 5374 5373 5372 5371 5371 5371 5371 5371 5370 5370 5370 5370 5370 5370 5370
5409 5409 5408 5408 5407 5406 5405 5403 5402 5400 5399 5397 5395 5394 5393 5391 5389 5387 5385 5383 5381 5378 5376 5374 5372 5370 5368 5367 5366 5365 5364 5363 5363 5363 5363 5363 5363 5363 5363 5363 5363 5362 5362 5362
5399 5399 5398 5398 5397 5395 5394 5393 5391 5390 5388 5387 5385 5384 5383 5381 5380 5378 5376 5374 5372 5370 5368 5366 5364 5362 5360 5359 5358 5356 5356 5355 5355 5355 5355 5355 5355 5355 5355 5356 5355 5355 5355 5355
5390 5390 5389 5388 5387 5385 5384 5383 5381 5380 5378 5377 5376 5375 5374 5373 5371 5369 5367 5366 5364 5362 5360 5358 5357 5355 5353 5352 5350 5349 5348 5348 5347 5347 5347 5348 5348 5348 5348 5349 5348 5348 5348 5349
5381 5380 5379 5378 5377 5376 5374 5373 5372 5371 5369 5368 5368 5367 5366 5364 5363 5361 5359 5358 5356 5354 5353 5351 5350 5348 5347 5345 5344 5343 5342 5341 5341 5340 5340 5341 5341 5341 5342 5342 5342 5342 5342 5342
5372 5371 5370 5369 5368 5367 5365 5364 5363 5362 5361 5360 5359 5358 5357 5356 5355 5353 5352 5350 5349 5347 5346 5344 5343 5341 5340 5339 5337 5336 5335 5335 5334 5334 5334 5334 5334 5334 5335 5335 5335 5335 5335 5336
5364 5363 5362 5360 5359 5358 5357 5356 5355 5354 5353 5352 5351 5350 5349 5348 5347 5346 5345 5344 5342 5340 5339 5337 5336 5335 5333 5332 5331 5330 5329 5328 5327 5327 5327 5327 5327 5328 5328 5328 5329 5329 5329 5329
5355 5354 5353 5352 5351 5350 5349 5348 5347 5346 5345 5344 5343 5343 5342 5341 5340 5339 5338 5337 5335 5334 5332 5331 5329 5328 5327 5326 5325 5324 5323 5322 5321 5321 5320 5320 5321 5321 5322 5322 5322 5322 5323 5323
5347 5346 5346 5345 5344 5343 5342 5341 5340 5339 5338 5337 5336 5336 5335 5334 5333 5332 5331 5330 5329 5327 5326 5325 5324 5322 5321 5320 5319 5318 5317 5316 5315 5315 5315 5315 5315 5315 5315 5316 5316 5316 5316 5316
5340 5339 5338 5338 5337 5336 5335 5334 5333 5332 5331 5330 5329 5329 5328 5327 5326 5325 5324 5323 5322 5321 5320 5319 5318 5317 5316 5315 5314 5312 5311 5310 5309 5309 5309 5309 5309 5309 5309 5310 5310 5310 5310 5310
5333 5332 5331 5330 5329 5328 5328 5327 5326 5325 5324 5323 5323 5322 5321 5321 5320 5319 5318 5317 5316 5315 5314 5313 5312 5311 5311 5310 5308 5307 5306 5305 5305 5304 5304 5304 5304 5304 5304 5304 5304 5304 5304 5304